HUANJING 1A (HJ-1A) (33320 NORAD) Tracking and Keplerian Element Data

This shows tracking and keplerian element data for the satellite.

Feedback or suggestion? Click here.




ElementValue
Catalog33320
NameHUANJING 1A (HJ-1A)
Epoch Orbit88469
Epoch Day35.1903753
Epoch Year2025
RAAN37.1103
Inclination97.6378
Eccentricity0.001891
Argument of Perigee337.2013
Mean Anonmoly22.8359
Mean Motion14.81939143
Decay Rate3.35E-05
L11 33320U 08041A 25035.19037530 .00003350 00000+0 42786-3 0 9997
L22 33320 97.6378 37.1103 0018910 337.2013 22.8359 14.81939143884693



Live tracking and technical data element details for HUANJING 1A (HJ-1A) (NORAD 33320). HUANJING 1A (HJ-1A) can be tracked NOW for your location showing map with azimuth and elevation plus other details from your city location.







IsCatalogInMostPopularTable: catalog: 33320, numindb: 317
Update: records affected: 1



GetName: 33320 HUANJING 1A (HJ-1A)

Hit Count: updated at: Fri, 16 May 2025 10:24:24 GMT